Date String (YYYY-MM-DD hh:mm:ss) UTC,Instrument flags,Ambient pressure (hPa),Sample flow (lpm),Bypass flow (lpm),Sample temperature (°C),Ambient temperature (°C),ASC tube jacket temperature (°C),LED temperature (°C),Box temperature (°C),Sample RH (%),Span deviation,Mass concentration (μg/m³),Mass concentration (μg/m³),Mass concentration (μg/m³)
DateTimeUTC,F1_M11,P_M11,Q1_M11,Q2_M11,T1_M11,T2_M11,T3_M11,T4_M11,T5_M11,U1_M11,ZSPAN_M11,X0_M11,X2_M11,X1_M11
2022-05-21 17:00:00,,0831.7,4.99,0.00,24.9,24.0,00.0,33.7,26.8,16.8,0000.0,0000.86,0000.14,0000.02
2022-05-21 17:01:00,,0831.7,5.00,0.00,24.9,24.0,00.0,33.7,26.8,16.8,0000.0,0000.79,0000.13,0000.03
2022-05-21 17:02:00,,0831.7,4.99,0.00,24.9,24.0,00.0,33.7,26.8,16.9,0000.0,0000.78,0000.12,0000.02
2022-05-21 17:03:00,,0831.6,5.02,0.00,24.9,24.0,00.0,33.7,26.8,16.6,0000.0,0000.78,0000.12,0000.02
2022-05-21 17:04:00,,0831.7,5.00,0.00,24.9,24.0,00.0,33.7,26.8,16.7,0000.0,0000.81,0000.13,0000.03
2022-05-21 17:05:00,,0831.7,5.00,0.00,24.9,24.0,00.0,33.7,26.8,16.4,0000.0,0000.73,0000.10,0000.03
2022-05-21 17:06:00,,0831.6,5.00,0.00,24.9,24.0,00.0,33.7,26.8,16.3,0000.0,0001.83,0000.09,0000.03
2022-05-21 17:07:00,,0831.6,4.99,0.00,24.9,24.0,00.0,33.8,26.8,15.9,0000.0,0002.43,0000.09,0000.03
2022-05-21 17:08:00,,0831.7,5.01,0.00,24.9,24.0,00.0,33.8,26.8,15.8,0000.0,0002.84,0000.08,0000.03
2022-05-21 17:09:00,,0831.7,4.99,0.00,24.9,24.0,00.0,33.8,26.8,16.0,0000.0,0002.82,0000.10,0000.03
2022-05-21 17:10:00,,0831.6,5.02,0.00,24.9,24.0,00.0,33.8,26.8,16.2,0000.0,0002.86,0000.12,0000.03
2022-05-21 17:11:00,,0831.7,4.99,0.00,24.9,24.0,00.0,33.8,26.8,16.3,0000.0,0002.90,0000.13,0000.03
2022-05-21 17:12:00,,0831.7,5.00,0.00,24.9,24.0,00.0,33.8,26.8,15.7,0000.0,0002.95,0000.15,0000.03
2022-05-21 17:13:00,,0831.7,5.00,0.00,24.9,24.0,00.0,33.8,26.8,16.3,0000.0,0002.97,0000.15,0000.04
2022-05-21 17:14:00,,0831.7,5.01,0.00,24.9,24.0,00.0,33.8,26.8,16.6,0000.0,0002.98,0000.16,0000.04
2022-05-21 17:15:00,,0831.7,4.99,0.00,24.9,24.1,00.0,33.8,26.8,16.5,0000.0,0002.99,0000.16,0000.03
2022-05-21 17:16:00,,0831.6,5.00,0.00,24.9,24.1,00.0,33.8,26.8,16.4,0000.0,0003.03,0000.19,0000.03
2022-05-21 17:17:00,,0831.7,5.00,0.00,24.9,24.1,00.0,33.8,26.8,16.0,0000.0,0001.72,0000.17,0000.03
2022-05-21 17:18:00,,0831.7,5.00,0.00,24.9,24.1,00.0,33.8,26.9,16.6,0000.0,0001.15,0000.18,0000.03
2022-05-21 17:19:00,,0831.7,5.00,0.00,25.0,24.1,00.0,33.8,26.9,16.5,0000.0,0000.49,0000.19,0000.03
2022-05-21 17:20:00,,0831.7,4.99,0.00,24.9,24.1,00.0,33.8,26.9,16.4,0000.0,0000.41,0000.17,0000.03
2022-05-21 17:21:00,,0831.7,5.01,0.00,25.0,24.1,00.0,33.8,26.9,16.4,0000.0,0000.39,0000.16,0000.03
2022-05-21 17:22:00,,0831.7,4.99,0.00,25.0,24.1,00.0,33.8,26.9,15.9,0000.0,0000.53,0000.16,0000.03
2022-05-21 17:23:00,,0831.7,5.01,0.00,25.0,24.1,00.0,33.8,26.9,15.4,0000.0,0001.10,0000.15,0000.02
2022-05-21 17:24:00,,0831.7,5.01,0.00,25.0,24.2,00.0,33.8,26.9,15.3,0000.0,0001.18,0000.18,0000.03
2022-05-21 17:25:00,,0831.7,4.99,0.00,25.0,24.2,00.0,33.9,27.0,15.8,0000.0,0001.18,0000.18,0000.03
2022-05-21 17:26:00,,0831.7,5.00,0.00,25.0,24.2,00.0,33.9,27.0,15.6,0000.0,0001.14,0000.16,0000.03
2022-05-21 17:27:00,,0831.7,4.99,0.00,25.0,24.2,00.0,33.9,27.0,16.1,0000.0,0001.10,0000.14,0000.03
2022-05-21 17:28:00,,0831.7,5.00,0.00,25.1,24.2,00.0,33.9,27.0,16.0,0000.0,0001.07,0000.13,0000.03
2022-05-21 17:29:00,,0831.7,5.00,0.00,25.1,24.3,00.0,33.9,27.0,16.4,0000.0,0001.01,0000.10,0000.03
2022-05-21 17:30:00,,0831.7,5.00,0.00,25.1,24.2,00.0,33.9,27.0,16.6,0000.0,0001.08,0000.14,0000.02
2022-05-21 17:31:00,,0831.7,4.99,0.00,25.1,24.2,00.0,33.9,26.9,16.8,0000.0,0001.12,0000.15,0000.03
2022-05-21 17:32:00,,0831.7,5.00,0.00,25.0,24.2,00.0,33.9,26.9,16.4,0000.0,0001.23,0000.15,0000.03
2022-05-21 17:33:00,,0831.7,5.00,0.00,25.0,24.2,00.0,33.9,26.9,16.2,0000.0,0001.02,0000.16,0000.03
2022-05-21 17:34:00,,0831.7,4.99,0.00,25.0,24.2,00.0,33.9,26.9,16.9,0000.0,0000.53,0000.16,0000.03
2022-05-21 17:35:00,,0831.7,5.01,0.00,25.0,24.2,00.0,33.9,26.9,16.3,0000.0,0000.46,0000.13,0000.02
2022-05-21 17:36:00,,0831.6,4.99,0.00,25.0,24.2,00.0,33.9,26.9,15.9,0000.0,0000.47,0000.13,0000.02
2022-05-21 17:37:00,,0831.6,5.01,0.00,25.0,24.2,00.0,33.9,27.0,16.0,0000.0,0000.47,0000.13,0000.02
2022-05-21 17:38:00,,0831.7,5.00,0.00,25.1,24.2,00.0,33.9,27.0,16.2,0000.0,0000.93,0000.14,0000.03
2022-05-21 17:39:00,,0831.7,4.99,0.00,25.1,24.2,00.0,33.9,27.0,15.8,0000.0,0002.12,0000.14,0000.03
2022-05-21 17:40:00,,0831.7,5.00,0.00,25.1,24.2,00.0,33.9,27.0,15.6,0000.0,0002.20,0000.16,0000.03
2022-05-21 17:41:00,,0831.7,5.00,0.00,25.1,24.2,00.0,34.0,27.0,15.6,0000.0,0002.14,0000.11,0000.02
2022-05-21 17:42:00,,0831.7,5.01,0.00,25.1,24.3,00.0,34.0,27.1,15.4,0000.0,0003.72,0000.11,0000.02
2022-05-21 17:43:00,,0831.7,5.00,0.00,25.1,24.3,00.0,34.0,27.1,15.6,0000.0,0003.97,0000.11,0000.02
2022-05-21 17:44:00,,0831.7,5.00,0.00,25.1,24.3,00.0,34.0,27.1,15.8,0000.0,0004.97,0000.09,0000.02
2022-05-21 17:45:00,,0831.8,4.99,0.00,25.2,24.4,00.0,34.0,27.1,15.9,0000.0,0005.53,0000.09,0000.02
2022-05-21 17:46:00,,0831.8,5.01,0.00,25.2,24.4,00.0,34.0,27.2,15.9,0000.0,0005.83,0000.10,0000.03
2022-05-21 17:47:00,,0831.8,4.99,0.00,25.2,24.4,00.0,34.0,27.2,16.3,0000.0,0005.85,0000.11,0000.02
2022-05-21 17:48:00,,0831.8,5.01,0.00,25.2,24.4,00.0,34.0,27.2,16.3,0000.0,0005.88,0000.12,0000.03
2022-05-21 17:49:00,,0831.8,5.00,0.00,25.2,24.5,00.0,34.0,27.2,15.6,0000.0,0005.37,0000.12,0000.02
2022-05-21 17:50:00,,0831.8,4.99,0.00,25.2,24.5,00.0,34.1,27.2,15.5,0000.0,0004.23,0000.11,0000.02
2022-05-21 17:51:00,,0831.9,5.02,0.00,25.3,24.5,00.0,34.1,27.2,15.6,0000.0,0004.16,0000.10,0000.02
2022-05-21 17:52:00,,0831.8,4.98,0.00,25.3,24.5,00.0,34.1,27.3,16.0,0000.0,0004.13,0000.11,0000.02
2022-05-21 17:53:00,,0831.8,5.01,0.00,25.3,24.5,00.0,34.1,27.3,15.6,0000.0,0002.31,0000.09,0000.02
2022-05-21 17:54:00,,0831.7,5.00,0.00,25.3,24.5,00.0,34.1,27.3,15.6,0000.0,0002.97,0000.09,0000.02
2022-05-21 17:55:00,,0831.8,5.00,0.00,25.3,24.5,00.0,34.1,27.3,15.8,0000.0,0001.90,0000.09,0000.03
2022-05-21 17:56:00,,0831.7,4.99,0.00,25.3,24.6,00.0,34.1,27.3,15.7,0000.0,0001.46,0000.08,0000.02
2022-05-21 17:57:00,,0831.8,5.01,0.00,25.4,24.6,00.0,34.2,27.3,15.9,0000.0,0001.28,0000.08,0000.02
2022-05-21 17:58:00,,0831.7,4.98,0.00,25.4,24.6,00.0,34.2,27.3,16.6,0000.0,0001.25,0000.07,0000.02
2022-05-21 17:59:00,,0831.8,5.00,0.00,25.4,24.6,00.0,34.2,27.3,16.4,0000.0,0001.99,0000.06,0000.01
